QPF
0.07 0.05 0.03 0.03 0.04 0.07 0.06 0.06 0.07 0.06 0.05 0.04 0.03 0.02 0.02 0.02 0.01 0.01 0.01 0.02 0.03 0.04 0.05 0.05 0.07 0.07 0.07 0.07 0.05 0.05 0.05 0.05 0.06 0.07 0.06 0.05 0.04 0.03 0.02 0.03 0.03 0.03 0.03
0.10 0.08 0.05 0.03 0.05 0.07 0.08 0.07 0.07 0.06 0.05 0.05 0.04 0.03 0.02 0.01 0.01 0.02 0.01 0.02 0.02 0.03 0.05 0.05 0.06 0.09 0.09 0.08 0.07 0.06 0.07 0.07 0.07 0.07 0.07 0.06 0.04 0.04 0.02 0.02 0.03 0.03 0.03
0.09 0.09 0.07 0.04 0.04 0.06 0.08 0.08 0.08 0.07 0.06 0.05 0.04 0.04 0.03 0.02 0.01 0.01 0.01 0.01 0.02 0.03 0.05 0.06 0.05 0.06 0.08 0.09 0.10 0.09 0.08 0.09 0.10 0.10 0.08 0.07 0.04 0.04 0.04 0.03 0.03 0.03 0.04
0.06 0.07 0.07 0.07 0.04 0.05 0.07 0.09 0.09 0.08 0.06 0.04 0.04 0.04 0.03 0.03 0.02 0.01 0.02 0.02 0.02 0.02 0.03 0.04 0.05 0.05 0.05 0.06 0.07 0.08 0.08 0.08 0.09 0.11 0.11 0.08 0.06 0.04 0.05 0.05 0.03 0.02 0.03
0.04 0.05 0.06 0.06 0.05 0.04 0.05 0.07 0.09 0.10 0.08 0.04 0.04 0.03 0.03 0.04 0.03 0.02 0.02 0.03 0.02 0.02 0.02 0.02 0.02 0.03 0.04 0.04 0.04 0.05 0.07 0.08 0.09 0.12 0.13 0.10 0.08 0.06 0.05 0.04 0.03 0.03 0.03
0.04 0.05 0.06 0.08 0.07 0.04 0.04 0.06 0.08 0.11 0.09 0.05 0.03 0.03 0.03 0.03 0.04 0.03 0.02 0.03 0.02 0.02 0.02 0.02 0.02 0.01 0.02 0.04 0.03 0.04 0.05 0.07 0.08 0.10 0.12 0.12 0.09 0.08 0.06 0.04 0.03 0.04 0.04
0.03 0.04 0.05 0.08 0.08 0.06 0.05 0.05 0.07 0.11 0.11 0.07 0.04 0.04 0.05 0.04 0.04 0.03 0.03 0.03 0.02 0.02 0.03 0.02 0.02 0.01 0.01 0.02 0.03 0.04 0.05 0.05 0.07 0.08 0.09 0.11 0.11 0.11 0.10 0.06 0.03 0.03 0.03
0.03 0.03 0.04 0.05 0.08 0.08 0.05 0.05 0.06 0.09 0.11 0.10 0.08 0.05 0.06 0.06 0.05 0.03 0.03 0.03 0.02 0.02 0.03 0.03 0.02 0.01 0.01 0.01 0.02 0.03 0.05 0.05 0.06 0.08 0.09 0.09 0.11 0.12 0.11 0.09 0.05 0.04 0.03
0.02 0.02 0.03 0.04 0.05 0.07 0.07 0.06 0.06 0.07 0.10 0.10 0.09 0.09 0.07 0.05 0.04 0.03 0.03 0.02 0.03 0.02 0.02 0.03 0.03 0.02 0.01 0.01 0.01 0.01 0.03 0.05 0.05 0.07 0.10 0.11 0.12 0.13 0.13 0.11 0.07 0.05 0.04
0.03 0.02 0.03 0.04 0.04 0.05 0.07 0.06 0.05 0.05 0.08 0.11 0.10 0.10 0.10 0.07 0.04 0.03 0.03 0.03 0.03 0.03 0.03 0.03 0.03 0.03 0.02 0.02 0.01 0.01 0.02 0.03 0.05 0.05 0.10 0.13 0.13 0.14 0.15 0.12 0.09 0.07 0.05
0.04 0.03 0.03 0.03 0.04 0.04 0.05 0.07 0.07 0.05 0.06 0.09 0.10 0.10 0.10 0.09 0.06 0.04 0.03 0.03 0.03 0.03 0.03 0.04 0.04 0.04 0.03 0.03 0.01 0.01 0.02 0.02 0.04 0.05 0.08 0.13 0.15 0.14 0.14 0.13 0.10 0.08 0.07
0.05 0.05 0.04 0.03 0.03 0.03 0.03 0.05 0.07 0.07 0.06 0.07 0.09 0.09 0.09 0.08 0.07 0.05 0.04 0.03 0.04 0.03 0.02 0.03 0.04 0.04 0.04 0.03 0.02 0.02 0.02 0.01 0.02 0.04 0.06 0.12 0.15 0.15 0.15 0.15 0.13 0.10 0.08
0.05 0.05 0.04 0.04 0.03 0.02 0.02 0.03 0.04 0.06 0.06 0.06 0.07 0.08 0.09 0.09 0.07 0.06 0.05 0.05 0.04 0.04 0.03 0.03 0.04 0.04 0.04 0.03 0.02 0.02 0.02 0.02 0.02 0.03 0.05 0.08 0.14 0.13 0.12 0.15 0.18 0.14 0.11
0.03 0.05 0.04 0.04 0.04 0.03 0.03 0.02 0.02 0.04 0.05 0.06 0.05 0.06 0.07 0.08 0.08 0.07 0.07 0.07 0.05 0.05 0.04 0.03 0.04 0.04 0.04 0.03 0.02 0.02 0.02 0.02 0.03 0.03 0.03 0.04 0.08 0.12 0.10 0.09 0.13 0.18 0.17
0.02 0.04 0.04 0.04 0.04 0.04 0.04 0.03 0.03 0.02 0.03 0.04 0.05 0.04 0.05 0.06 0.06 0.07 0.07 0.06 0.06 0.06 0.05 0.04 0.04 0.05 0.05 0.03 0.03 0.02 0.02 0.02 0.03 0.03 0.03 0.03 0.04 0.08 0.10 0.08 0.07 0.10 0.15
0.02 0.03 0.03 0.03 0.04 0.05 0.05 0.04 0.04 0.03 0.02 0.03 0.03 0.03 0.03 0.04 0.05 0.06 0.06 0.06 0.05 0.04 0.04 0.04 0.04 0.05 0.06 0.05 0.04 0.03 0.03 0.02 0.03 0.03 0.03 0.03 0.03 0.04 0.09 0.09 0.07 0.07 0.08
0.01 0.02 0.02 0.02 0.03 0.04 0.05 0.05 0.04 0.03 0.03 0.02 0.02 0.02 0.02 0.03 0.04 0.05 0.06 0.06 0.04 0.03 0.03 0.03 0.03 0.04 0.05 0.06 0.06 0.05 0.04 0.03 0.03 0.03 0.03 0.03 0.03 0.03 0.06 0.09 0.08 0.06 0.06
0.01 0.01 0.01 0.02 0.02 0.03 0.03 0.04 0.03 0.03 0.03 0.02 0.02 0.02 0.02 0.02 0.03 0.04 0.05 0.06 0.05 0.03 0.03 0.03 0.03 0.03 0.03 0.05 0.06 0.06 0.05 0.04 0.03 0.03 0.03 0.03 0.03 0.03 0.04 0.07 0.08 0.07 0.06
0.00 0.00 0.01 0.01 0.01 0.02 0.02 0.02 0.03 0.02 0.02 0.02 0.02 0.02 0.02 0.03 0.03 0.03 0.04 0.06 0.06 0.05 0.04 0.04 0.03 0.03 0.02 0.02 0.04 0.06 0.07 0.06 0.04 0.03 0.04 0.04 0.04 0.04 0.03 0.05 0.08 0.08 0.07
0.00 0.00 0.01 0.01 0.01 0.01 0.01 0.01 0.01 0.02 0.02 0.02 0.02 0.02 0.02 0.02 0.03 0.03 0.04 0.04 0.05 0.06 0.06 0.05 0.04 0.03 0.03 0.02 0.03 0.04 0.05 0.06 0.05 0.04 0.04 0.04 0.04 0.05 0.04 0.04 0.06 0.10 0.09
0.00 0.00 0.00 0.01 0.01 0.01 0.01 0.01 0.01 0.02 0.02 0.02 0.02 0.02 0.02 0.02 0.02 0.03 0.04 0.05 0.05 0.06 0.06 0.06 0.05 0.04 0.04 0.03 0.03 0.03 0.04 0.04 0.04 0.04 0.04 0.03 0.03 0.03 0.05 0.05 0.05 0.07 0.10
0.00 0.00 0.00 0.00 0.00 0.00 0.01 0.01 0.02 0.03 0.03 0.02 0.02 0.02 0.02 0.02 0.02 0.03 0.04 0.05 0.06 0.07 0.07 0.06 0.05 0.04 0.03 0.03 0.03 0.04 0.04 0.04 0.04 0.03 0.03 0.03 0.03 0.03 0.03 0.05 0.06 0.06 0.08
0.00 0.00 0.00 0.00 0.00 0.00 0.01 0.01 0.02 0.03 0.03 0.02 0.02 0.01 0.01 0.01 0.02 0.02 0.02 0.03 0.04 0.05 0.06 0.06 0.05 0.04 0.03 0.03 0.03 0.03 0.04 0.03 0.03 0.02 0.03 0.03 0.03 0.03 0.03 0.04 0.06 0.06 0.05
0.00 0.00 0.00 0.00 0.00 0.00 0.01 0.01 0.02 0.02 0.01 0.01 0.01 0.01 0.01 0.01 0.01 0.02 0.02 0.03 0.03 0.03 0.03 0.04 0.04 0.03 0.04 0.04 0.05 0.05 0.05 0.04 0.03 0.03 0.03 0.04 0.03 0.03 0.03 0.03 0.04 0.06 0.06
0.00 0.00 0.00 0.00 0.00 0.00 0.00 0.01 0.02 0.02 0.01 0.01 0.01 0.01 0.01 0.01 0.01 0.02 0.03 0.04 0.03 0.03 0.03 0.03 0.03 0.03 0.04 0.04 0.05 0.06 0.07 0.08 0.07 0.05 0.04 0.05 0.04 0.04 0.04 0.03 0.04 0.06 0.07
0.00 0.00 0.00 0.00 0.00 0.00 0.00 0.01 0.02 0.03 0.02 0.01 0.01 0.01 0.01 0.02 0.02 0.03 0.04 0.05 0.04 0.03 0.03 0.03 0.03 0.03 0.03 0.03 0.04 0.05 0.05 0.06 0.07 0.06 0.05 0.05 0.05 0.05 0.05 0.05 0.04 0.04 0.05
MSLP
1018.22 1017.82 1017.37 1016.90 1016.42 1015.95 1015.51 1015.10 1014.75 1014.47 1014.27 1014.15 1014.12 1014.16 1014.26 1014.40 1014.56 1014.72 1014.85 1014.93 1014.96 1014.95 1014.90 1014.83 1014.76 1014.71 1014.69 1014.71 1014.77 1014.84 1014.93 1015.01 1015.07 1015.12 1015.17 1015.23 1015.30 1015.42 1015.58 1015.80 1016.05 1016.33 1016.63
1018.69 1018.25 1017.76 1017.23 1016.70 1016.19 1015.71 1015.29 1014.94 1014.68 1014.52 1014.44 1014.45 1014.53 1014.67 1014.84 1015.02 1015.18 1015.30 1015.36 1015.36 1015.32 1015.23 1015.12 1015.03 1014.97 1014.95 1014.99 1015.07 1015.17 1015.29 1015.40 1015.49 1015.55 1015.59 1015.62 1015.65 1015.70 1015.79 1015.92 1016.10 1016.32 1016.56
1019.25 1018.78 1018.24 1017.66 1017.08 1016.52 1016.00 1015.57 1015.22 1014.98 1014.84 1014.80 1014.85 1014.97 1015.14 1015.33 1015.53 1015.69 1015.81 1015.87 1015.85 1015.79 1015.68 1015.55 1015.44 1015.36 1015.33 1015.37 1015.46 1015.59 1015.73 1015.88 1015.99 1016.08 1016.12 1016.14 1016.15 1016.16 1016.18 1016.24 1016.34 1016.47 1016.63
1019.91 1019.41 1018.83 1018.21 1017.57 1016.96 1016.42 1015.96 1015.60 1015.36 1015.23 1015.20 1015.27 1015.41 1015.60 1015.82 1016.03 1016.21 1016.34 1016.40 1016.40 1016.34 1016.23 1016.10 1015.98 1015.89 1015.86 1015.89 1015.97 1016.10 1016.26 1016.42 1016.57 1016.68 1016.74 1016.77 1016.77 1016.76 1016.74 1016.74 1016.76 1016.80 1016.88
1020.63 1020.12 1019.53 1018.87 1018.20 1017.55 1016.96 1016.47 1016.08 1015.82 1015.68 1015.64 1015.70 1015.84 1016.03 1016.25 1016.47 1016.67 1016.83 1016.93 1016.97 1016.94 1016.87 1016.77 1016.67 1016.58 1016.54 1016.55 1016.62 1016.73 1016.88 1017.05 1017.20 1017.33 1017.43 1017.48 1017.49 1017.47 1017.43 1017.38 1017.33 1017.30 1017.28
1021.40 1020.91 1020.30 1019.63 1018.94 1018.26 1017.64 1017.11 1016.69 1016.38 1016.20 1016.12 1016.15 1016.25 1016.42 1016.63 1016.85 1017.08 1017.28 1017.44 1017.54 1017.59 1017.58 1017.54 1017.47 1017.40 1017.36 1017.36 1017.39 1017.48 1017.60 1017.74 1017.89 1018.03 1018.14 1018.21 1018.24 1018.22 1018.17 1018.10 1018.01 1017.92 1017.83
1022.21 1021.73 1021.14 1020.48 1019.78 1019.09 1018.44 1017.88 1017.41 1017.05 1016.81 1016.67 1016.63 1016.68 1016.80 1016.98 1017.20 1017.45 1017.69 1017.92 1018.11 1018.25 1018.34 1018.38 1018.37 1018.34 1018.31 1018.28 1018.29 1018.33 1018.40 1018.50 1018.62 1018.74 1018.85 1018.93 1018.97 1018.97 1018.93 1018.85 1018.74 1018.62 1018.48
1023.02 1022.56 1022.00 1021.36 1020.68 1019.99 1019.34 1018.75 1018.25 1017.84 1017.53 1017.32 1017.20 1017.18 1017.24 1017.38 1017.59 1017.84 1018.12 1018.41 1018.69 1018.93 1019.12 1019.25 1019.32 1019.34 1019.32 1019.30 1019.27 1019.25 1019.27 1019.31 1019.38 1019.46 1019.55 1019.62 1019.67 1019.68 1019.65 1019.58 1019.47 1019.33 1019.18
1023.80 1023.38 1022.85 1022.24 1021.59 1020.94 1020.30 1019.71 1019.18 1018.73 1018.37 1018.09 1017.91 1017.81 1017.80 1017.89 1018.06 1018.30 1018.61 1018.94 1019.28 1019.61 1019.89 1020.11 1020.26 1020.33 1020.35 1020.32 1020.26 1020.20 1020.16 1020.13 1020.14 1020.17 1020.22 1020.26 1020.30 1020.31 1020.29 1020.24 1020.14 1020.02 1019.88
1024.54 1024.13 1023.64 1023.08 1022.48 1021.87 1021.27 1020.70 1020.18 1019.71 1019.32 1019.00 1018.75 1018.59 1018.52 1018.55 1018.67 1018.88 1019.17 1019.52 1019.89 1020.27 1020.62 1020.90 1021.12 1021.24 1021.29 1021.28 1021.21 1021.12 1021.02 1020.94 1020.88 1020.85 1020.84 1020.85 1020.86 1020.87 1020.85 1020.81 1020.74 1020.64 1020.53
1025.20 1024.81 1024.35 1023.84 1023.30 1022.75 1022.20 1021.67 1021.18 1020.73 1020.34 1019.99 1019.72 1019.51 1019.39 1019.35 1019.41 1019.57 1019.82 1020.14 1020.50 1020.88 1021.25 1021.58 1021.83 1022.00 1022.09 1022.09 1022.03 1021.93 1021.80 1021.68 1021.56 1021.48 1021.42 1021.38 1021.36 1021.35 1021.33 1021.30 1021.25 1021.19 1021.11
1025.77 1025.39 1024.96 1024.50 1024.01 1023.52 1023.04 1022.57 1022.13 1021.72 1021.35 1021.02 1020.74 1020.51 1020.35 1020.26 1020.25 1020.34 1020.51 1020.76 1021.08 1021.42 1021.77 1022.09 1022.37 1022.57 1022.68 1022.72 1022.68 1022.59 1022.46 1022.32 1022.18 1022.05 1021.95 1021.87 1021.81 1021.77 1021.74 1021.71 1021.68 1021.65 1021.60
1026.24 1025.86 1025.46 1025.04 1024.61 1024.18 1023.76 1023.36 1022.97 1022.62 1022.29 1021.99 1021.73 1021.50 1021.32 1021.18 1021.12 1021.12 1021.21 1021.36 1021.59 1021.85 1022.15 1022.44 1022.70 1022.92 1023.06 1023.14 1023.14 1023.08 1022.98 1022.84 1022.70 1022.55 1022.42 1022.31 1022.23 1022.16 1022.12 1022.08 1022.06 1022.04 1022.02
1026.60 1026.23 1025.85 1025.47 1025.09 1024.71 1024.34 1023.99 1023.67 1023.36 1023.09 1022.83 1022.60 1022.39 1022.20 1022.05 1021.93 1021.86 1021.85 1021.90 1022.01 1022.18 1022.39 1022.62 1022.86 1023.07 1023.24 1023.36 1023.41 1023.41 1023.35 1023.25 1023.12 1022.98 1022.84 1022.72 1022.61 1022.53 1022.46 1022.42 1022.40 1022.38 1022.37
1026.88 1026.52 1026.16 1025.81 1025.46 1025.12 1024.78 1024.47 1024.18 1023.92 1023.69 1023.48 1023.29 1023.11 1022.94 1022.77 1022.62 1022.49 1022.39 1022.34 1022.35 1022.41 1022.53 1022.70 1022.89 1023.09 1023.28 1023.44 1023.54 1023.59 1023.59 1023.54 1023.45 1023.33 1023.20 1023.08 1022.96 1022.86 1022.78 1022.73 1022.70 1022.68 1022.66
1027.08 1026.74 1026.41 1026.08 1025.75 1025.42 1025.10 1024.80 1024.52 1024.29 1024.08 1023.92 1023.76 1023.62 1023.48 1023.32 1023.15 1022.98 1022.83 1022.70 1022.61 1022.59 1022.62 1022.72 1022.87 1023.05 1023.25 1023.43 1023.58 1023.68 1023.74 1023.73 1023.69 1023.60 1023.49 1023.37 1023.25 1023.15 1023.06 1023.00 1022.95 1022.92 1022.89
1027.22 1026.92 1026.62 1026.31 1025.98 1025.64 1025.31 1024.99 1024.71 1024.48 1024.29 1024.14 1024.02 1023.92 1023.80 1023.67 1023.52 1023.34 1023.15 1022.98 1022.83 1022.74 1022.71 1022.75 1022.86 1023.02 1023.21 1023.40 1023.58 1023.72 1023.81 1023.85 1023.84 1023.78 1023.69 1023.58 1023.47 1023.36 1023.28 1023.20 1023.14 1023.10 1023.05
1027.34 1027.07 1026.79 1026.49 1026.16 1025.80 1025.44 1025.10 1024.79 1024.53 1024.34 1024.21 1024.11 1024.04 1023.97 1023.87 1023.75 1023.58 1023.40 1023.21 1023.03 1022.90 1022.83 1022.83 1022.90 1023.04 1023.21 1023.40 1023.58 1023.74 1023.84 1023.90 1023.90 1023.86 1023.78 1023.69 1023.58 1023.48 1023.39 1023.32 1023.25 1023.19 1023.13
1027.42 1027.19 1026.93 1026.64 1026.29 1025.91 1025.52 1025.13 1024.79 1024.51 1024.30 1024.16 1024.08 1024.04 1024.00 1023.95 1023.87 1023.74 1023.57 1023.39 1023.22 1023.08 1022.99 1022.96 1023.00 1023.11 1023.26 1023.43 1023.59 1023.74 1023.84 1023.89 1023.89 1023.85 1023.78 1023.68 1023.58 1023.49 1023.40 1023.32 1023.25 1023.18 1023.11
1027.49 1027.28 1027.03 1026.73 1026.37 1025.97 1025.54 1025.12 1024.74 1024.43 1024.20 1024.06 1023.99 1023.97 1023.96 1023.95 1023.90 1023.81 1023.69 1023.53 1023.38 1023.24 1023.14 1023.11 1023.13 1023.21 1023.33 1023.47 1023.60 1023.71 1023.79 1023.82 1023.81 1023.75 1023.67 1023.58 1023.48 1023.38 1023.30 1023.22 1023.15 1023.08 1023.00
1027.52 1027.32 1027.07 1026.76 1026.39 1025.96 1025.50 1025.05 1024.65 1024.32 1024.08 1023.93 1023.86 1023.85 1023.87 1023.88 1023.87 1023.81 1023.72 1023.60 1023.47 1023.35 1023.26 1023.22 1023.23 1023.28 1023.37 1023.48 1023.58 1023.65 1023.70 1023.70 1023.66 1023.59 1023.50 1023.40 1023.29 1023.20 1023.11 1023.04 1022.97 1022.89 1022.82
1027.51 1027.30 1027.04 1026.71 1026.32 1025.87 1025.40 1024.94 1024.52 1024.17 1023.92 1023.77 1023.70 1023.70 1023.72 1023.75 1023.76 1023.73 1023.66 1023.56 1023.46 1023.36 1023.28 1023.24 1023.24 1023.29 1023.35 1023.43 1023.50 1023.54 1023.56 1023.53 1023.47 1023.39 1023.29 1023.18 1023.08 1022.99 1022.90 1022.82 1022.75 1022.67 1022.59
1027.46 1027.22 1026.93 1026.58 1026.16 1025.70 1025.22 1024.76 1024.33 1023.99 1023.74 1023.59 1023.52 1023.51 1023.53 1023.56 1023.57 1023.54 1023.49 1023.41 1023.32 1023.23 1023.17 1023.14 1023.15 1023.19 1023.24 1023.31 1023.36 1023.39 1023.38 1023.35 1023.28 1023.19 1023.10 1022.99 1022.89 1022.80 1022.71 1022.63 1022.55 1022.46 1022.37
1027.37 1027.08 1026.75 1026.36 1025.93 1025.45 1024.97 1024.51 1024.09 1023.76 1023.52 1023.36 1023.28 1023.27 1023.28 1023.29 1023.29 1023.26 1023.20 1023.13 1023.05 1022.98 1022.93 1022.92 1022.94 1022.99 1023.05 1023.12 1023.17 1023.21 1023.21 1023.18 1023.13 1023.05 1022.96 1022.87 1022.78 1022.69 1022.60 1022.51 1022.41 1022.31 1022.20
1027.24 1026.89 1026.51 1026.09 1025.63 1025.14 1024.66 1024.20 1023.80 1023.48 1023.24 1023.09 1023.01 1022.97 1022.96 1022.96 1022.94 1022.89 1022.83 1022.76 1022.69 1022.63 1022.61 1022.61 1022.66 1022.73 1022.82 1022.91 1022.99 1023.04 1023.07 1023.07 1023.04 1022.99 1022.92 1022.85 1022.77 1022.69 1022.59 1022.48 1022.36 1022.23 1022.09
1027.09 1026.69 1026.25 1025.79 1025.30 1024.80 1024.31 1023.86 1023.48 1023.16 1022.94 1022.78 1022.69 1022.64 1022.61 1022.58 1022.55 1022.49 1022.43 1022.36 1022.30 1022.27 1022.27 1022.31 1022.38 1022.49 1022.61 1022.73 1022.84 1022.93 1022.99 1023.02 1023.03 1023.01 1022.97 1022.92 1022.86 1022.77 1022.67 1022.55 1022.40 1022.23 1022.05
Thickness
5575 5578 5580 5583 5586 5589 5593 5596 5599 5603 5606 5609 5612 5614 5617 5619 5621 5623 5625 5626 5628 5630 5633 5635 5637 5639 5641 5642 5643 5644 5645 5646 5646 5647 5647 5647 5648 5648 5648 5648 5648 5647 5647
5562 5564 5567 5570 5574 5577 5580 5584 5588 5591 5595 5598 5602 5605 5607 5609 5611 5613 5616 5618 5620 5622 5624 5626 5629 5631 5633 5634 5635 5636 5638 5639 5640 5640 5641 5641 5642 5642 5642 5642 5642 5642 5642
5550 5552 5555 5558 5561 5564 5568 5572 5576 5579 5583 5587 5591 5594 5597 5599 5602 5604 5606 5609 5611 5613 5615 5617 5620 5622 5624 5626 5627 5629 5630 5631 5632 5634 5634 5635 5635 5635 5636 5636 5636 5636 5636
5537 5540 5542 5545 5548 5551 5555 5559 5563 5567 5571 5575 5578 5582 5585 5588 5591 5594 5596 5598 5601 5604 5606 5608 5610 5613 5615 5617 5619 5620 5622 5623 5625 5626 5627 5628 5629 5629 5629 5629 5629 5629 5629
5523 5527 5529 5532 5535 5538 5542 5545 5549 5553 5557 5561 5565 5569 5573 5577 5579 5582 5585 5587 5590 5592 5595 5598 5600 5603 5605 5607 5610 5612 5614 5615 5617 5619 5620 5621 5621 5623 5623 5623 5623 5623 5623
5509 5512 5516 5518 5521 5524 5528 5531 5535 5538 5542 5547 5552 5556 5560 5564 5567 5570 5573 5576 5578 5581 5583 5586 5590 5593 5595 5597 5600 5603 5605 5607 5609 5611 5612 5613 5614 5615 5616 5616 5616 5616 5616
5493 5496 5500 5503 5506 5509 5512 5515 5519 5524 5528 5532 5538 5543 5548 5552 5555 5557 5560 5563 5566 5568 5571 5574 5578 5581 5584 5587 5590 5592 5595 5598 5600 5602 5604 5606 5607 5608 5609 5610 5610 5609 5609
5477 5480 5483 5486 5489 5492 5496 5499 5503 5508 5512 5515 5520 5526 5534 5540 5543 5544 5546 5549 5552 5555 5558 5561 5565 5569 5573 5576 5579 5582 5584 5587 5590 5593 5595 5598 5600 5601 5601 5603 5604 5603 5603
5460 5463 5466 5469 5473 5476 5480 5483 5486 5491 5496 5499 5502 5506 5515 5525 5527 5531 5533 5535 5537 5540 5544 5548 5552 5556 5560 5564 5568 5570 5573 5576 5579 5583 5586 5588 5591 5593 5594 5594 5596 5596 5597
5445 5447 5449 5453 5456 5460 5463 5467 5470 5474 5478 5483 5486 5489 5494 5500 5507 5516 5520 5521 5523 5526 5530 5534 5538 5542 5546 5551 5555 5558 5561 5564 5568 5572 5575 5578 5581 5584 5585 5586 5588 5589 5589
5431 5432 5434 5437 5440 5443 5447 5450 5454 5457 5461 5466 5470 5474 5478 5482 5489 5497 5506 5508 5509 5512 5515 5519 5523 5528 5533 5537 5542 5546 5549 5552 5555 5560 5564 5568 5571 5573 5575 5577 5579 5580 5581
5417 5418 5419 5421 5424 5427 5431 5434 5438 5442 5445 5449 5453 5458 5462 5467 5473 5478 5487 5493 5496 5499 5500 5505 5509 5513 5518 5523 5528 5532 5535 5539 5543 5547 5552 5556 5559 5562 5565 5567 5569 5572 5573
5403 5404 5404 5406 5408 5411 5415 5419 5422 5426 5429 5433 5438 5442 5446 5450 5454 5459 5466 5474 5479 5483 5487 5491 5494 5498 5503 5508 5513 5517 5522 5526 5530 5534 5539 5544 5547 5551 5554 5556 5559 5562 5564
5388 5389 5390 5392 5393 5396 5400 5403 5407 5411 5415 5418 5422 5426 5430 5434 5437 5442 5448 5455 5462 5469 5474 5478 5481 5484 5488 5492 5497 5501 5507 5512 5516 5521 5526 5530 5535 5539 5542 5545 5548 5551 5553
5373 5374 5376 5377 5379 5382 5385 5388 5392 5396 5400 5404 5407 5411 5415 5419 5422 5427 5432 5437 5444 5454 5462 5466 5467 5470 5472 5477 5481 5486 5492 5497 5502 5507 5512 5517 5521 5526 5530 5533 5536 5539 5542
5360 5360 5362 5363 5366 5368 5370 5374 5378 5381 5386 5390 5393 5397 5402 5406 5409 5413 5417 5422 5428 5435 5444 5451 5453 5455 5457 5461 5466 5471 5477 5482 5487 5493 5498 5502 5508 5512 5516 5520 5524 5528 5530
5346 5347 5348 5350 5352 5354 5356 5360 5363 5367 5372 5376 5380 5384 5389 5392 5397 5400 5404 5408 5414 5420 5427 5435 5437 5440 5443 5447 5452 5456 5461 5467 5473 5479 5483 5488 5493 5498 5503 5508 5512 5515 5518
5334 5334 5335 5337 5339 5341 5344 5347 5351 5354 5358 5363 5367 5371 5376 5379 5385 5388 5392 5396 5400 5406 5412 5420 5424 5427 5431 5434 5438 5442 5447 5453 5458 5464 5469 5474 5479 5485 5490 5495 5499 5503 5506
5322 5322 5323 5325 5327 5329 5332 5335 5338 5341 5345 5350 5354 5359 5364 5368 5373 5376 5380 5384 5388 5392 5398 5405 5411 5414 5418 5421 5424 5428 5433 5438 5444 5450 5454 5460 5466 5471 5476 5481 5485 5490 5494
5310 5311 5312 5313 5315 5318 5320 5323 5326 5330 5334 5338 5342 5347 5352 5356 5360 5364 5368 5372 5376 5379 5384 5390 5396 5401 5405 5407 5410 5415 5419 5424 5430 5434 5440 5445 5451 5456 5462 5468 5474 5478 5482
5299 5300 5301 5303 5305 5307 5310 5312 5315 5319 5324 5328 5332 5336 5340 5344 5348 5352 5357 5361 5364 5368 5372 5377 5383 5388 5392 5395 5398 5402 5406 5410 5415 5418 5424 5432 5438 5445 5449 5454 5458 5464 5468
5289 5290 5291 5293 5295 5297 5299 5302 5305 5310 5314 5318 5322 5326 5330 5334 5338 5342 5346 5349 5353 5356 5360 5364 5371 5376 5381 5384 5386 5388 5392 5396 5402 5406 5409 5416 5422 5429 5435 5441 5446 5450 5454
5280 5281 5282 5283 5286 5288 5289 5293 5296 5300 5304 5308 5311 5315 5320 5324 5327 5331 5335 5339 5342 5345 5348 5352 5358 5364 5368 5371 5373 5377 5380 5383 5388 5391 5393 5402 5407 5414 5421 5427 5432 5436 5440
5271 5272 5273 5274 5276 5278 5280 5283 5286 5290 5294 5298 5301 5305 5309 5314 5317 5320 5324 5329 5333 5337 5340 5342 5348 5352 5355 5357 5359 5362 5365 5369 5373 5377 5380 5386 5393 5399 5406 5412 5418 5422 5426
5262 5262 5264 5265 5267 5269 5270 5273 5276 5281 5285 5289 5292 5296 5299 5303 5307 5310 5313 5319 5324 5328 5330 5332 5336 5339 5342 5344 5346 5347 5351 5355 5362 5366 5369 5374 5380 5385 5391 5398 5404 5408 5412
5253 5253 5254 5255 5257 5260 5261 5264 5267 5271 5276 5280 5284 5287 5291 5294 5297 5299 5302 5307 5312 5318 5320 5324 5326 5328 5331 5334 5335 5337 5341 5344 5350 5355 5359 5361 5367 5370 5376 5384 5389 5394 5398